TimeEDT,TemperatureF,Dew PointF,Humidity,Sea Level PressureIn,VisibilityMPH,Wind Direction,Wind SpeedMPH,Gust SpeedMPH,PrecipitationIn,Events,Conditions,WindDirDegrees,DateUTC
12:53 AM,73.9,68.0,82,29.98,10.0,East,6.9,-,N/A,,Clear,100,2013-05-01 04:53:00
1:53 AM,73.9,69.1,85,29.96,10.0,ESE,8.1,-,N/A,,Clear,110,2013-05-01 05:53:00
2:53 AM,73.9,69.1,85,29.94,10.0,East,8.1,-,N/A,,Clear,100,2013-05-01 06:53:00
3:49 AM,73.4,69.8,88,29.93,10.0,East,11.5,-,N/A,,Partly Cloudy,100,2013-05-01 07:49:00
3:53 AM,73.9,69.1,85,29.94,10.0,ESE,11.5,-,N/A,,Partly Cloudy,110,2013-05-01 07:53:00
4:45 AM,73.4,69.8,88,29.93,10.0,East,8.1,-,N/A,,Mostly Cloudy,90,2013-05-01 08:45:00
4:53 AM,73.9,69.1,85,29.93,10.0,East,9.2,-,N/A,,Scattered Clouds,100,2013-05-01 08:53:00
5:29 AM,73.4,69.8,88,29.93,10.0,East,8.1,-,N/A,,Scattered Clouds,90,2013-05-01 09:29:00
5:48 AM,73.4,69.8,88,29.94,10.0,East,9.2,-,N/A,,Mostly Cloudy,100,2013-05-01 09:48:00
5:53 AM,73.0,68.0,84,29.94,10.0,East,11.5,-,N/A,,Mostly Cloudy,100,2013-05-01 09:53:00
5:58 AM,73.4,68.0,83,29.94,10.0,East,8.1,-,N/A,,Mostly Cloudy,100,2013-05-01 09:58:00
6:34 AM,73.4,69.8,88,29.95,10.0,East,10.4,17.3,N/A,,Scattered Clouds,100,2013-05-01 10:34:00
6:53 AM,73.0,69.1,87,29.97,10.0,ESE,8.1,-,N/A,,Scattered Clouds,110,2013-05-01 10:53:00
7:53 AM,73.9,69.1,85,29.98,10.0,East,10.4,-,N/A,,Scattered Clouds,100,2013-05-01 11:53:00
8:53 AM,73.9,69.1,85,29.98,10.0,East,10.4,-,N/A,,Overcast,100,2013-05-01 12:53:00
9:50 AM,75.2,69.8,83,30.00,10.0,ESE,9.2,-,N/A,,Mostly Cloudy,110,2013-05-01 13:50:00
9:53 AM,75.0,69.1,82,30.00,10.0,ESE,9.2,-,N/A,,Mostly Cloudy,110,2013-05-01 13:53:00
10:31 AM,75.2,69.8,83,30.01,10.0,ESE,12.7,-,0.00,Rain,Light Rain,110,2013-05-01 14:31:00
10:39 AM,75.2,69.8,83,30.01,10.0,ESE,10.4,-,0.01,Rain,Light Rain,110,2013-05-01 14:39:00
10:53 AM,75.0,70.0,84,30.01,5.0,East,6.9,-,0.03,Rain,Light Rain,100,2013-05-01 14:53:00
11:53 AM,75.0,71.1,87,30.01,8.0,East,6.9,-,0.02,Rain,Light Rain,100,2013-05-01 15:53:00
12:16 PM,75.2,71.6,89,30.01,10.0,East,6.9,-,0.02,Rain,Light Rain,100,2013-05-01 16:16:00
12:53 PM,75.0,71.1,87,29.99,10.0,East,8.1,-,0.05,Rain,Light Rain,100,2013-05-01 16:53:00
1:53 PM,75.9,71.1,85,29.98,10.0,East,10.4,-,0.00,Rain,Light Rain,100,2013-05-01 17:53:00
2:53 PM,75.9,71.1,85,29.96,10.0,East,11.5,-,0.03,Rain,Light Rain,100,2013-05-01 18:53:00
3:18 PM,75.2,71.6,89,29.96,10.0,East,9.2,-,0.02,Rain-Thunderstorm,Light Rain,80,2013-05-01 19:18:00
3:41 PM,69.8,66.2,88,29.96,10.0,South,11.5,-,0.08,Rain-Thunderstorm,Thunderstorms and Rain,180,2013-05-01 19:41:00
3:53 PM,69.1,66.0,90,29.96,5.0,SSE,6.9,-,0.26,Rain-Thunderstorm,Heavy Thunderstorms and Rain,150,2013-05-01 19:53:00
4:02 PM,69.8,66.2,88,29.96,10.0,SE,8.1,-,0.05,Rain,Rain,130,2013-05-01 20:02:00
4:09 PM,69.8,66.2,88,29.96,10.0,SE,8.1,-,0.08,Rain-Thunderstorm,Rain,130,2013-05-01 20:09:00
4:16 PM,69.8,66.2,88,29.95,10.0,Calm,Calm,-,0.10,Rain-Thunderstorm,Rain,0,2013-05-01 20:16:00
4:24 PM,69.8,66.2,88,29.95,10.0,Calm,Calm,-,0.14,Rain,Rain,0,2013-05-01 20:24:00
4:35 PM,69.8,66.2,88,29.95,10.0,East,5.8,-,0.18,Rain-Thunderstorm,Rain,100,2013-05-01 20:35:00
4:50 PM,69.8,66.2,88,29.95,10.0,South,8.1,-,0.27,Rain,Heavy Rain,170,2013-05-01 20:50:00
4:53 PM,69.8,66.2,88,29.95,10.0,SE,5.8,-,N/A,Rain,Rain,140,2013-05-01 20:53:00
5:53 PM,70.0,66.9,90,29.96,10.0,East,4.6,-,0.35,Rain,Light Rain,100,2013-05-01 21:53:00
6:53 PM,70.0,66.0,87,29.96,10.0,East,8.1,-,0.06,Rain,Light Rain,80,2013-05-01 22:53:00
7:53 PM,70.0,66.0,87,29.96,10.0,ESE,8.1,-,0.04,Rain,Light Rain,110,2013-05-01 23:53:00
8:00 PM,69.8,66.2,88,29.96,10.0,ESE,10.4,-,0.00,Rain,Light Rain,120,2013-05-02 00:00:00
8:25 PM,69.8,64.4,83,29.97,10.0,ESE,10.4,-,0.01,Rain,Light Rain,110,2013-05-02 00:25:00
8:53 PM,69.1,64.9,87,29.98,10.0,ESE,15.0,-,0.01,,Scattered Clouds,110,2013-05-02 00:53:00
9:53 PM,-9999,-9999,N/A,29.99,10.0,East,11.5,-,0.02,Rain,Light Rain,100,2013-05-02 01:53:00
10:53 PM,-9999,-9999,N/A,29.99,10.0,ESE,5.8,-,0.04,,Overcast,110,2013-05-02 02:53:00
11:53 PM,71.1,66.9,87,29.99,10.0,ENE,5.8,-,N/A,,Overcast,60,2013-05-02 03:53:00